Radiation Dose at Monitoring Post of Fukushima Daini Nuclear Power Station
Date,Time,MP-1(microSv/h),MP-2(microSv/h),MP-3(microSv/h),MP-4(microSv/h),MP-5(microSv/h),MP-6(microSv/h),MP-7(microSv/h),Wind Direction,Wind Velocity(m/s),Rain
2013/02/21,00:00,1.1,0.7,1.0,1.0,0.9,0.5,0.4,west-northwest,11.7,No
2013/02/21,00:10,1.1,0.7,1.1,1.0,0.9,0.5,0.4,west-northwest,11.8,No
2013/02/21,00:20,1.1,0.7,1.1,1.0,0.9,0.5,0.4,west-northwest,11.4,No
2013/02/21,00:30,1.1,0.7,1.1,1.0,0.9,0.5,0.4,west-northwest,10.4,No
2013/02/21,00:40,1.1,0.7,1.1,1.0,0.9,0.5,0.4,west-northwest,9.8,No
2013/02/21,00:50,1.1,0.7,1.1,1.0,0.9,0.5,0.4,west-northwest,9.8,No
2013/02/21,01:00,1.1,0.7,1.1,1.0,0.9,0.5,0.4,west-northwest,8.2,No
2013/02/21,01:10,1.1,0.7,1.1,1.0,0.9,0.5,0.4,west-northwest,7.3,No
2013/02/21,01:20,1.1,0.7,1.1,1.0,0.9,0.5,0.4,northwest,7.5,No
2013/02/21,01:30,1.1,0.7,1.1,1.0,0.9,0.5,0.4,northwest,4.0,No
2013/02/21,01:40,1.1,0.7,1.1,1.0,0.9,0.5,0.4,northwest,5.0,No
2013/02/21,01:50,1.1,0.7,1.1,1.0,0.9,0.5,0.4,northwest,6.0,No
2013/02/21,02:00,1.1,0.7,1.1,1.0,0.9,0.5,0.4,west-northwest,7.4,No
2013/02/21,02:10,1.1,0.7,1.1,1.0,0.9,0.5,0.4,northwest,8.8,No
2013/02/21,02:20,1.1,0.7,1.1,1.0,0.9,0.5,0.4,northwest,7.4,No
2013/02/21,02:30,1.1,0.7,1.0,1.0,0.9,0.5,0.4,northwest,7.0,No
2013/02/21,02:40,1.1,0.7,1.0,1.0,0.9,0.5,0.4,northwest,8.1,No
2013/02/21,02:50,1.1,0.7,1.1,1.0,0.9,0.5,0.4,northwest,7.9,No
2013/02/21,03:00,1.1,0.7,1.1,1.0,0.9,0.5,0.4,west-northwest,6.7,No
2013/02/21,03:10,1.1,0.7,1.1,1.0,0.9,0.5,0.4,west-northwest,6.0,No
2013/02/21,03:20,1.1,0.7,1.1,1.0,0.9,0.5,0.4,northwest,5.1,No
2013/02/21,03:30,1.1,0.7,1.1,1.0,0.9,0.5,0.4,northwest,5.7,No
2013/02/21,03:40,1.1,0.7,1.1,1.0,0.9,0.5,0.4,west-northwest,5.2,No
2013/02/21,03:50,1.1,0.7,1.1,1.0,0.9,0.5,0.4,northwest,4.7,No
2013/02/21,04:00,1.1,0.7,1.1,1.0,0.9,0.5,0.4,northwest,4.7,No
2013/02/21,04:10,1.1,0.7,1.1,1.0,0.9,0.5,0.4,north-northwest,5.9,No
2013/02/21,04:20,1.1,0.7,1.1,1.0,0.9,0.5,0.4,northwest,5.5,No
2013/02/21,04:30,1.1,0.7,1.1,1.0,0.9,0.5,0.4,northwest,4.8,No
2013/02/21,04:40,1.1,0.7,1.1,1.0,0.9,0.5,0.4,northwest,4.4,No
2013/02/21,04:50,1.1,0.7,1.1,1.0,0.9,0.5,0.4,northwest,6.6,No
2013/02/21,05:00,1.1,0.7,1.1,1.0,0.9,0.5,0.4,northwest,5.8,No
2013/02/21,05:10,1.1,0.7,1.1,1.0,0.9,0.5,0.4,northwest,4.5,No
2013/02/21,05:20,1.1,0.7,1.1,1.0,0.9,0.5,0.4,northwest,4.0,No
2013/02/21,05:30,1.1,0.7,1.1,1.0,0.9,0.5,0.4,northwest,4.6,No
2013/02/21,05:40,1.1,0.7,1.1,1.0,0.9,0.5,0.4,west-northwest,4.9,No
2013/02/21,05:50,1.1,0.7,1.0,1.0,0.9,0.5,0.4,west-northwest,5.5,No
2013/02/21,06:00,1.1,0.7,1.1,1.0,0.9,0.5,0.4,northwest,6.4,No
2013/02/21,06:10,1.1,0.7,1.1,1.0,0.9,0.5,0.4,northwest,6.9,No
2013/02/21,06:20,1.1,0.7,1.1,1.0,0.9,0.5,0.4,northwest,6.3,No
2013/02/21,06:30,1.1,0.7,1.1,1.0,0.9,0.5,0.4,northwest,6.3,No
2013/02/21,06:40,1.1,0.7,1.1,1.0,0.9,0.5,0.4,northwest,7.8,No
2013/02/21,06:50,1.1,0.7,1.1,1.0,0.9,0.5,0.4,northwest,8.3,No
2013/02/21,07:00,1.1,0.7,1.1,1.0,0.9,0.5,0.4,northwest,9.3,No
2013/02/21,07:10,1.1,0.7,1.0,1.0,0.9,0.5,0.4,northwest,8.1,No
2013/02/21,07:20,1.1,0.7,1.1,1.0,0.9,0.5,0.4,west-northwest,6.0,No
2013/02/21,07:30,1.1,0.7,1.1,1.0,0.9,0.5,0.4,northwest,7.6,No
2013/02/21,07:40,1.1,0.7,1.1,1.0,0.9,0.5,0.4,northwest,6.3,No
2013/02/21,07:50,1.1,0.7,1.1,1.0,0.9,0.5,0.4,northwest,8.1,No
2013/02/21,08:00,1.1,0.7,1.1,1.0,0.9,0.5,0.4,northwest,7.3,No
2013/02/21,08:10,1.1,0.7,1.1,1.0,0.9,0.5,0.4,west-northwest,10.4,No
2013/02/21,08:20,1.1,0.7,1.1,1.0,0.9,0.5,0.4,west-northwest,10.6,No
2013/02/21,08:30,1.1,0.7,1.1,1.0,0.9,0.5,0.4,west-northwest,11.2,No
2013/02/21,08:40,1.1,0.7,1.1,1.0,0.9,0.5,0.4,west-northwest,12.0,No
2013/02/21,08:50,1.1,0.7,1.1,1.0,0.9,0.5,0.4,west-northwest,9.8,No
2013/02/21,09:00,1.1,0.7,1.1,1.0,0.9,0.5,0.4,west-northwest,12.3,No
2013/02/21,09:10,1.1,0.7,1.1,1.0,0.9,0.5,0.4,west-northwest,13.4,No
2013/02/21,09:20,1.1,0.7,1.1,1.0,0.9,0.5,0.4,west-northwest,11.7,No
2013/02/21,09:30,1.1,0.7,1.1,1.0,0.9,0.5,0.4,northwest,13.3,No
2013/02/21,09:40,1.1,0.7,1.1,1.0,0.9,0.5,0.4,west-northwest,13.7,No
2013/02/21,09:50,1.1,0.7,1.1,1.0,0.9,0.5,0.4,west-northwest,14.2,No
2013/02/21,10:00,1.1,0.7,1.1,1.0,0.9,0.5,0.4,west-northwest,11.7,No
2013/02/21,10:10,1.1,0.7,1.1,1.0,0.9,0.5,0.4,west-northwest,14.7,No
2013/02/21,10:20,1.1,0.7,1.0,1.0,0.9,0.5,0.4,west-northwest,12.9,No
2013/02/21,10:30,1.1,0.7,1.1,1.0,0.9,0.5,0.4,northwest,12.3,No
2013/02/21,10:40,1.1,0.7,1.1,1.0,0.9,0.5,0.4,west-northwest,14.0,No
2013/02/21,10:50,1.1,0.7,1.1,1.0,0.9,0.5,0.4,west,12.2,No
2013/02/21,11:00,1.1,0.7,1.1,1.0,0.9,0.5,0.4,west-northwest,12.8,No
2013/02/21,11:10,1.1,0.7,1.1,1.0,0.9,0.5,0.4,west-northwest,10.9,No
2013/02/21,11:20,1.1,0.7,1.1,1.0,0.9,0.5,0.4,west-northwest,13.1,No
2013/02/21,11:30,1.1,0.7,1.1,1.0,0.9,0.5,0.4,west-northwest,11.8,No
2013/02/21,11:40,1.1,0.7,1.1,1.0,0.9,0.5,0.4,west-northwest,9.2,No
2013/02/21,11:50,1.1,0.7,1.1,1.0,0.9,0.5,0.4,west-northwest,10.1,No
2013/02/21,12:00,1.1,0.7,1.1,1.0,0.9,0.5,0.4,west-northwest,12.8,No
2013/02/21,12:10,1.1,0.7,1.1,1.0,0.9,0.5,0.4,west-northwest,8.5,No
2013/02/21,12:20,1.1,0.7,1.1,1.0,0.9,0.5,0.4,west-northwest,10.7,No
2013/02/21,12:30,1.1,0.7,1.1,1.0,0.9,0.5,0.4,west-northwest,8.5,No
2013/02/21,12:40,1.1,0.7,1.1,1.0,0.9,0.5,0.4,west-northwest,11.1,No
2013/02/21,12:50,1.1,0.7,1.1,1.0,0.9,0.5,0.4,west-northwest,10.7,No
2013/02/21,13:00,1.1,0.7,1.1,1.0,0.9,0.5,0.4,west-northwest,10.9,No
2013/02/21,13:10,1.1,0.7,1.1,1.0,0.9,0.5,0.4,west-northwest,11.1,No
2013/02/21,13:20,1.1,0.7,1.1,1.0,0.9,0.5,0.4,west,10.9,No
2013/02/21,13:30,1.1,0.7,1.1,1.0,0.9,0.5,0.4,west,14.0,No
2013/02/21,13:40,1.1,0.7,1.1,1.0,0.9,0.5,0.4,west-northwest,10.3,No
2013/02/21,13:50,1.1,0.7,1.1,1.0,0.9,0.5,0.4,west,11.5,No
2013/02/21,14:00,1.1,0.7,1.1,1.0,0.9,0.5,0.4,west-northwest,11.5,No
2013/02/21,14:10,1.1,0.7,1.1,1.0,0.9,0.5,0.4,west-northwest,10.7,No
2013/02/21,14:20,1.1,0.7,1.1,1.0,0.9,0.5,0.4,west-northwest,11.2,No
2013/02/21,14:30,1.1,0.7,1.1,1.0,0.9,0.5,0.4,west,12.3,No
2013/02/21,14:40,1.1,0.7,1.1,1.0,0.9,0.5,0.4,west-northwest,10.7,No
2013/02/21,14:50,1.1,0.7,1.1,1.0,0.9,0.5,0.4,west-northwest,12.3,No
2013/02/21,15:00,1.1,0.7,1.1,1.0,0.9,0.5,0.4,west-northwest,8.7,No
2013/02/21,15:10,1.1,0.7,1.1,1.0,0.9,0.5,0.4,west-northwest,8.7,No
2013/02/21,15:20,1.1,0.7,1.1,1.0,0.9,0.4,0.4,west-northwest,6.9,No
2013/02/21,15:30,1.1,0.7,1.1,1.0,0.9,0.5,0.4,west-northwest,9.3,No
2013/02/21,15:40,1.1,0.7,1.1,0.9,0.9,0.5,0.4,west-northwest,7.9,No
2013/02/21,15:50,1.1,0.7,1.1,1.0,0.9,0.5,0.4,west-northwest,8.9,No
2013/02/21,16:00,1.1,0.7,1.1,1.0,0.9,0.5,0.4,west,6.3,No
2013/02/21,16:10,1.1,0.7,1.1,1.0,0.9,0.5,0.4,northwest,2.6,No
2013/02/21,16:20,1.1,0.7,1.1,1.0,0.9,0.5,0.4,north-northwest,1.7,No
2013/02/21,16:30,1.1,0.7,1.1,1.0,0.9,0.5,0.4,northwest,4.1,No
2013/02/21,16:40,1.1,0.7,1.1,1.0,0.9,0.5,0.4,northwest,3.0,No
2013/02/21,16:50,1.1,0.7,1.1,1.0,0.9,0.5,0.4,northwest,3.0,No
2013/02/21,17:00,1.1,0.7,1.1,1.0,0.9,0.5,0.4,northwest,2.5,No
2013/02/21,17:10,1.1,0.7,1.1,1.0,0.9,0.5,0.4,west-northwest,3.4,No
2013/02/21,17:20,1.1,0.7,1.1,1.0,0.9,0.5,0.4,northwest,3.7,No
2013/02/21,17:30,1.1,0.7,1.1,1.0,0.9,0.5,0.4,northwest,2.9,No
2013/02/21,17:40,1.1,0.7,1.1,1.0,0.9,0.5,0.4,west-northwest,2.4,No
2013/02/21,17:50,1.1,0.7,1.1,1.0,0.9,0.5,0.4,north,1.7,No
2013/02/21,18:00,1.1,0.7,1.1,1.0,0.9,0.5,0.4,northwest,2.2,No
2013/02/21,18:10,1.1,0.7,1.1,1.0,0.9,0.5,0.4,northwest,1.1,No
2013/02/21,18:20,1.1,0.7,1.1,1.0,0.9,0.5,0.4,northwest,1.3,No
2013/02/21,18:30,1.1,0.7,1.1,1.0,0.9,0.5,0.4,southwest,2.3,No
2013/02/21,18:40,1.1,0.7,1.1,1.0,0.9,0.5,0.4,south-southwest,1.9,No
2013/02/21,18:50,1.1,0.7,1.1,1.0,0.9,0.5,0.4,south,1.6,No
2013/02/21,19:00,1.1,0.7,1.1,1.0,0.9,0.5,0.4,southwest,2.7,No
2013/02/21,19:10,1.1,0.7,1.1,1.0,0.9,0.5,0.4,southwest,2.2,No
2013/02/21,19:20,1.1,0.7,1.1,1.0,0.9,0.5,0.4,southwest,1.3,No
2013/02/21,19:30,1.1,0.7,1.1,1.0,0.9,0.5,0.4,west-southwest,2.2,No
2013/02/21,19:40,1.1,0.7,1.1,1.0,0.9,0.5,0.4,southwest,2.9,No
2013/02/21,19:50,1.1,0.7,1.1,1.0,0.9,0.5,0.4,south-southwest,2.4,No
2013/02/21,20:00,1.1,0.7,1.1,1.0,0.9,0.5,0.4,west-southwest,1.6,No
2013/02/21,20:10,1.1,0.7,1.1,1.0,0.9,0.5,0.4,west-northwest,1.2,No
2013/02/21,20:20,1.1,0.7,1.1,1.0,0.9,0.5,0.4,west,0.6,No
2013/02/21,20:30,1.1,0.7,1.1,1.0,0.9,0.5,0.4,south,0.8,No
2013/02/21,20:40,1.1,0.7,1.1,1.0,0.9,0.5,0.4,south-southwest,1.5,No
2013/02/21,20:50,1.1,0.7,1.1,1.0,0.9,0.5,0.4,south-southwest,2.8,No
2013/02/21,21:00,1.1,0.7,1.1,1.0,0.9,0.5,0.4,southwest,2.1,No
2013/02/21,21:10,1.1,0.7,1.1,1.0,0.9,0.5,0.4,west-northwest,0.8,No
2013/02/21,21:20,1.1,0.7,1.1,1.0,0.9,0.5,0.4,-,-,No
2013/02/21,21:30,1.1,0.7,1.1,1.0,0.9,0.5,0.4,northwest,0.7,No
2013/02/21,21:40,1.1,0.7,1.1,1.0,0.9,0.5,0.4,south-southwest,0.6,No
2013/02/21,21:50,1.1,0.7,1.1,1.0,0.9,0.5,0.4,southeast,0.9,No
2013/02/21,22:00,1.1,0.7,1.1,1.0,0.9,0.5,0.4,south-southeast,1.2,No
2013/02/21,22:10,1.1,0.7,1.1,1.0,0.9,0.5,0.4,-,-,No
2013/02/21,22:20,1.1,0.7,1.1,1.0,0.9,0.5,0.4,west-southwest,1.0,No
2013/02/21,22:30,1.1,0.7,1.1,1.0,0.9,0.5,0.4,west-southwest,1.8,No
2013/02/21,22:40,1.1,0.7,1.1,1.0,0.9,0.5,0.4,southwest,3.7,No
2013/02/21,22:50,1.1,0.7,1.1,1.0,0.9,0.5,0.4,west-southwest,4.3,No
2013/02/21,23:00,1.1,0.7,1.1,1.0,0.9,0.5,0.4,west-southwest,3.3,No
2013/02/21,23:10,1.1,0.7,1.1,1.0,0.9,0.5,0.4,west-northwest,3.1,No
2013/02/21,23:20,1.1,0.7,1.1,1.0,0.9,0.5,0.4,west-northwest,2.0,No
2013/02/21,23:30,1.1,0.7,1.1,1.0,0.9,0.5,0.4,west-southwest,1.4,No
2013/02/21,23:40,1.1,0.7,1.1,1.0,0.9,0.5,0.4,-,-,No
2013/02/21,23:50,1.1,0.7,1.1,1.0,0.9,0.5,0.4,-,-,No
